Regional Weather Roundup
Issued by NWS Cleveland, OH

Home | Current Version | Previous Version | Graphics & Text | Print | Product List | Glossary On
Versions: 1 2 3 4 5 6 7 8 9 10 11 12 13 14 15 16 17 18 19 20 21 22 23 24 25 26 27 28 29 30 31 32 33 34 35 36 37 38 39 40 41 42 43 44 45 46 47 48 49 50
000
ASUS41 KCLE 291210
RWRCLE
OHIO REGIONAL WEATHER ROUNDUP
NATIONAL WEATHER SERVICE CLEVELAND, OH
800 AM EDT THU SEP 29 2016

NOTE: "FAIR" INDICATES FEW OR NO CLOUDS BELOW 12,000 FEET WITH NO
SIGNIFICANT WEATHER AND/OR OBSTRUCTIONS TO VISIBILITY.

OHZ001>008-015>018-024>027-034-035-043-044-291300-
   NORTHWEST OHIO

CITY           SKY/WX    TMP DP  RH WIND       PRES   REMARKS
DEFIANCE       CLOUDY    57  54  89 N5        30.06R FOG
FINDLAY        MOCLDY    55  51  86 E7        30.05R
TOLEDO EXPRESS CLOUDY    57  57 100 CALM      30.05R FOG
TOLEDO EXEC    PTCLDY    56  56 100 SE6       30.07R FOG
LIMA           CLOUDY    55  55 100 E5        30.04R
$$

OHZ009>014-019>023-028>033-038-089-291300-
   NORTHEAST OHIO

CITY           SKY/WX    TMP DP  RH WIND       PRES   REMARKS
CLE-HOPKINS    CLOUDY    59  55  87 SE3       30.10R
CLE-LAKEFRONT  LGT RAIN  62  59  90 S5        30.07R FOG
CUY CO. ARPT   MOCLDY    64  63  94 SE12      30.07R
LORAIN-ELYRIA  CLOUDY    55  52  89 SE6       30.07R
ASHTABULA      MOCLDY    61  58  90 SE7       30.12R
AKRON-CANTON   CLOUDY    59  56  89 E3        30.07R FOG
WOOSTER        CLOUDY    53  52  96 W3        30.09R
MANSFIELD      PTCLDY    54  54 100 SE3       30.07R
YOUNGSTOWN     LGT RAIN  60  57  89 E12       30.11R
$$

OHZ042-051>053-060>062-070>072-077>081-291300-
  SOUTHWEST OHIO

CITY           SKY/WX    TMP DP  RH WIND       PRES   REMARKS
CINC-COVINGTON CLOUDY    54  53  97 CALM      30.02R FOG
CINC-LUNKEN    CLOUDY    53  53 100 CALM      30.04R FOG
HAMILTON       CLOUDY    54  52  93 NE3       30.04R
DAYTON         FOG       53  53 100 E6        30.04R VSB 1
WRIGHT-PAT AFB CLOUDY    55  55 100 E6        30.03R FOG
DAYTON GENERAL CLOUDY    53  51  93 SE3       30.03R FOG
WILMINGTON     CLOUDY    52  51  97 SE5       30.03R
$$

OHZ036-037-039>041-045>050-054>059-063>069-073>076-082>088-291300-
  CENTRAL AND SOUTHEAST OHIO

CITY           SKY/WX    TMP DP  RH WIND       PRES   REMARKS
COLUMBUS       CLOUDY    58  57  97 E3        30.04R
OSU AIRPORT    CLOUDY    57  56  96 NW3       30.04R
BOLTON FIELD   CLOUDY    54  54 100 CALM      30.04R FOG
RICKENBACK AFB CLOUDY    55  55  99 CALM      30.04R
NEWARK         LGT RAIN  57  55  93 CALM      30.05R
MARION         CLOUDY    56  54  93 SE5       30.06R
LANCASTER      CLOUDY    57  56  96 E6        30.05R
ZANESVILLE     CLOUDY    55  54  96 NE5       30.06R
NEW PHILLY     CLOUDY    56  56 100 CALM      30.09R
$$




USA.gov is the U.S. government's official web portal to all federal, state and local government web resources and services.